Hourly Data Report for December 07, 2019

EUREKA CLIMATE
NUNAVUT
Current Station Operator: ECCC - MSC

79°59'21.000" N
85°56'02.000" W
10.00 m
2401199
71613
NEK

Download Data

Hourly Data (December 2019)
Hourly Data Report for December 7, 2019
TIME
LST
Temp Definition
°C
Dew Point Definition
°C
Rel Hum Definition
%
Precip. Amount Definition
mm

Wind Dir Definition
10's deg

Wind Spd Definition
km/h
Visibility Definition
km
Stn Press Definition
kPa
Hmdx Definition


Wind Chill Definition


Weather Definition


00:00 -31.9 -35.0 74 0.0 12 5   100.68   -38 LegendNANA
01:00 -32.0 -35.1 74 0.0 12 9   100.65   -41 LegendNANA
02:00 -32.0 -35.0 75 0.0 11 15   100.65   -44 LegendNANA
03:00 -28.7 -31.4 78 0.0 10 6   100.60   -35 LegendNANA
04:00 -30.5 -33.4 76 0.0 11 5   100.57   -36 LegendNANA
05:00 -32.5 -35.6 74 0.0 11 11   100.54   -43 LegendNANA
06:00 -30.8 -33.7 75 0.0 9 3   100.51   -34 LegendNANA
07:00 -31.9 -34.9 75 0.0 2 5   100.49   -38 LegendNANA
08:00 -32.5 -35.6 74 0.0 10 7   100.48   -40 LegendNANA
09:00 -32.5 -35.7 74 0.2 10 3   100.47   -36 LegendNANA
10:00 -32.5 -35.6 74 0.0 13 1   100.48   -34 LegendNANA
11:00 -32.3 -35.4 74 0.0 9 5   100.46   -38 LegendNANA
12:00 -33.7 -36.9 73 0.0 9 5   100.49   -40 LegendNANA
13:00 -33.3 -36.5 73 0.0 8 4   100.49   -38 LegendNANA
14:00 -34.0 -37.3 72 0.0 12 7   100.54   -42 LegendNANA
15:00 -33.2 -36.3 73 0.0 11 3   100.57   -37 LegendNANA
16:00 -34.0 -37.3 72 0.0 10 2   100.59   -36 LegendNANA
17:00 -34.9 -38.3 71 0.0 12 5   100.62   -41 LegendNANA
18:00 -35.5 -39.0 70 0.0 12 4   100.65   -41 LegendNANA
19:00 -34.1 -37.5 72 0.0 8 6   100.68   -41 LegendNANA
20:00 -33.6 -36.8 72 0.0 9 5   100.73   -40 LegendNANA
21:00 -31.8 -34.8 74 0.0 10 5   100.76   -38 LegendNANA
22:00 -31.5 -34.5 75 0.0 11 7   100.83   -39 LegendNANA
23:00 -30.8 -33.7 76 0.0 9 7   100.88   -38 LegendNANA

Notes on Data Quality.

Legend

  • E = Estimated
  • M = Missing
  • NA = Not Available*
  • [empty] = Indicates an unobserved value
Date modified: